Zurück zum Katalog

AFRISTAR

AktivKommunikationGEO
NORAD 25515·PAYLOAD·🇺🇸 United States

Gestartet Oct 28, 1998 von Guiana Space Centre

Loading…

TLE

AktuellSource: Space-Track

Epoche: Sep 14, 2026, 08:23 UTC

1 25515U 98063A   26257.34960501 -.00000184  00000-0  00000-0 0  9998
2 25515  10.4183  48.9268 0005095 146.9471 224.4187  0.99007867101449

Verfolge AFRISTAR in Echtzeit mit AllMySat

Download on the App Store